Time,TemperatureF,DewpointF,PressureIn,WindDirection,WindDirectionDegrees,WindSpeedMPH,WindSpeedGustMPH,Humidity,HourlyPrecipIn,Conditions,Clouds,dailyrainin,SoftwareType,DateUTC
2013-05-18 00:01:00,73.6,59.3,29.55,North,0,0.0,0.0,61,0.00,,,0.00,WUHU216HW,2013-05-18 05:01:00,
2013-05-18 00:06:00,73.6,59.3,29.56,North,0,0.0,0.0,61,0.00,,,0.00,WUHU216HW,2013-05-18 05:06:00,
2013-05-18 00:11:00,73.1,59.2,29.55,North,0,0.0,0.0,62,0.00,,,0.00,WUHU216HW,2013-05-18 05:11:00,
2013-05-18 00:16:00,72.7,59.4,29.55,North,0,0.0,0.0,63,0.00,,,0.00,WUHU216HW,2013-05-18 05:16:00,
2013-05-18 00:21:00,72.5,59.2,29.55,North,0,0.0,0.0,63,0.00,,,0.00,WUHU216HW,2013-05-18 05:21:00,
2013-05-18 00:26:00,72.4,59.5,29.55,North,0,0.0,0.0,64,0.00,,,0.00,WUHU216HW,2013-05-18 05:26:00,
2013-05-18 00:31:00,72.0,59.1,29.56,North,0,0.0,0.0,64,0.00,,,0.00,WUHU216HW,2013-05-18 05:31:00,
2013-05-18 00:36:00,71.6,59.2,29.56,North,0,0.0,0.0,65,0.00,,,0.00,WUHU216HW,2013-05-18 05:36:00,
2013-05-18 00:41:00,71.5,59.0,29.56,North,0,0.0,0.0,65,0.00,,,0.00,WUHU216HW,2013-05-18 05:41:00,
2013-05-18 00:46:00,71.5,59.0,29.56,North,0,0.0,0.0,65,0.00,,,0.00,WUHU216HW,2013-05-18 05:46:00,
2013-05-18 00:51:00,71.5,59.0,29.56,North,0,0.0,0.0,65,0.00,,,0.00,WUHU216HW,2013-05-18 05:51:00,
2013-05-18 00:56:00,71.5,59.0,29.55,North,0,0.0,0.0,65,0.00,,,0.00,WUHU216HW,2013-05-18 05:56:00,
2013-05-18 01:01:00,71.6,59.2,29.55,North,0,0.0,0.0,65,0.00,,,0.00,WUHU216HW,2013-05-18 06:01:00,
2013-05-18 01:06:00,71.5,59.0,29.55,North,0,0.0,0.0,65,0.00,,,0.00,WUHU216HW,2013-05-18 06:06:00,
2013-05-18 01:11:00,71.5,59.0,29.55,North,0,0.0,0.0,65,0.00,,,0.00,WUHU216HW,2013-05-18 06:11:00,
2013-05-18 01:16:00,71.3,58.4,29.55,North,0,0.0,0.0,64,0.00,,,0.00,WUHU216HW,2013-05-18 06:16:00,
2013-05-18 01:21:00,70.9,58.5,29.55,North,0,0.0,0.0,65,0.00,,,0.00,WUHU216HW,2013-05-18 06:21:00,
2013-05-18 01:26:00,70.9,58.5,29.55,North,0,0.0,0.0,65,0.00,,,0.00,WUHU216HW,2013-05-18 06:26:00,
2013-05-18 01:31:00,71.3,58.4,29.55,North,0,0.0,0.0,64,0.00,,,0.00,WUHU216HW,2013-05-18 06:31:00,
2013-05-18 01:36:00,71.5,59.0,29.55,North,0,0.0,0.0,65,0.00,,,0.00,WUHU216HW,2013-05-18 06:36:00,
2013-05-18 01:41:00,71.3,58.4,29.55,North,0,0.0,0.0,64,0.00,,,0.00,WUHU216HW,2013-05-18 06:41:00,
2013-05-18 01:46:00,70.9,58.5,29.55,North,0,0.0,0.0,65,0.00,,,0.00,WUHU216HW,2013-05-18 06:46:00,
2013-05-18 01:51:00,70.4,58.4,29.55,North,0,0.0,0.0,66,0.00,,,0.00,WUHU216HW,2013-05-18 06:51:00,
2013-05-18 01:56:00,70.0,58.2,29.55,North,0,0.0,0.0,66,0.00,,,0.00,WUHU216HW,2013-05-18 06:56:00,
2013-05-18 02:01:00,69.8,58.0,29.55,North,0,0.0,0.0,66,0.00,,,0.00,WUHU216HW,2013-05-18 07:01:00,
2013-05-18 02:06:00,69.8,58.3,29.55,North,0,0.0,0.0,67,0.00,,,0.00,WUHU216HW,2013-05-18 07:06:00,
2013-05-18 02:11:00,69.8,58.3,29.55,North,0,0.0,0.0,67,0.00,,,0.00,WUHU216HW,2013-05-18 07:11:00,
2013-05-18 02:16:00,69.7,58.1,29.56,North,0,0.0,0.0,67,0.00,,,0.00,WUHU216HW,2013-05-18 07:16:00,
2013-05-18 02:21:00,69.8,58.3,29.56,North,0,0.0,0.0,67,0.00,,,0.00,WUHU216HW,2013-05-18 07:21:00,
2013-05-18 02:26:00,70.2,58.2,29.56,North,0,0.0,0.0,66,0.00,,,0.00,WUHU216HW,2013-05-18 07:26:00,
2013-05-18 02:31:00,70.6,58.6,29.56,North,0,0.0,0.0,66,0.00,,,0.00,WUHU216HW,2013-05-18 07:31:00,
2013-05-18 02:36:00,70.7,58.3,29.56,North,0,0.0,0.0,65,0.00,,,0.00,WUHU216HW,2013-05-18 07:36:00,
2013-05-18 02:41:00,70.7,58.3,29.55,North,0,0.0,0.0,65,0.00,,,0.00,WUHU216HW,2013-05-18 07:41:00,
2013-05-18 02:46:00,70.7,58.3,29.56,North,0,0.0,0.0,65,0.00,,,0.00,WUHU216HW,2013-05-18 07:46:00,
2013-05-18 02:51:00,70.9,58.5,29.56,North,0,0.0,0.0,65,0.00,,,0.00,WUHU216HW,2013-05-18 07:51:00,
2013-05-18 02:56:00,70.9,58.5,29.56,North,0,0.0,0.0,65,0.00,,,0.00,WUHU216HW,2013-05-18 07:56:00,
2013-05-18 03:01:00,70.7,58.3,29.55,North,0,0.0,0.0,65,0.00,,,0.00,WUHU216HW,2013-05-18 08:01:00,
2013-05-18 03:06:00,70.2,58.2,29.55,North,0,0.0,0.0,66,0.00,,,0.00,WUHU216HW,2013-05-18 08:06:00,
2013-05-18 03:11:00,69.5,58.0,29.55,North,0,0.0,0.0,67,0.00,,,0.00,WUHU216HW,2013-05-18 08:11:00,
2013-05-18 03:16:00,69.1,57.7,29.55,North,0,0.0,0.0,67,0.00,,,0.00,WUHU216HW,2013-05-18 08:16:00,
2013-05-18 03:21:00,68.8,58.1,29.55,North,0,0.0,0.0,69,0.00,,,0.00,WUHU216HW,2013-05-18 08:21:00,
2013-05-18 03:26:00,68.2,58.2,29.55,North,0,0.0,0.0,70,0.00,,,0.00,WUHU216HW,2013-05-18 08:26:00,
2013-05-18 03:30:00,67.9,57.8,29.55,North,0,0.0,0.0,70,0.00,,,0.00,WUHU216HW,2013-05-18 08:30:00,
2013-05-18 03:35:00,67.9,57.8,29.55,North,0,0.0,0.0,70,0.00,,,0.00,WUHU216HW,2013-05-18 08:35:00,
2013-05-18 03:40:00,67.7,58.0,29.55,North,0,0.0,0.0,71,0.00,,,0.00,WUHU216HW,2013-05-18 08:40:00,
2013-05-18 03:45:00,67.3,58.0,29.55,North,0,0.0,0.0,72,0.00,,,0.00,WUHU216HW,2013-05-18 08:45:00,
2013-05-18 03:50:00,67.1,57.8,29.55,North,0,0.0,0.0,72,0.00,,,0.00,WUHU216HW,2013-05-18 08:50:00,
2013-05-18 03:55:00,67.0,58.1,29.55,North,0,0.0,0.0,73,0.00,,,0.00,WUHU216HW,2013-05-18 08:55:00,
2013-05-18 04:00:00,67.0,57.6,29.55,North,0,0.0,0.0,72,0.00,,,0.00,WUHU216HW,2013-05-18 09:00:00,
2013-05-18 04:05:00,67.1,57.8,29.55,North,0,0.0,0.0,72,0.00,,,0.00,WUHU216HW,2013-05-18 09:05:00,
2013-05-18 04:10:00,67.0,58.1,29.55,North,0,0.0,0.0,73,0.00,,,0.00,WUHU216HW,2013-05-18 09:10:00,
2013-05-18 04:15:00,67.0,58.1,29.55,North,0,0.0,0.0,73,0.00,,,0.00,WUHU216HW,2013-05-18 09:15:00,
2013-05-18 04:20:00,67.3,58.0,29.55,North,0,0.0,0.0,72,0.00,,,0.00,WUHU216HW,2013-05-18 09:20:00,
2013-05-18 04:25:00,67.3,58.0,29.55,North,0,0.0,0.0,72,0.00,,,0.00,WUHU216HW,2013-05-18 09:25:00,
2013-05-18 04:30:00,67.3,58.0,29.55,North,0,0.0,0.0,72,0.00,,,0.00,WUHU216HW,2013-05-18 09:30:00,
2013-05-18 04:35:00,67.1,57.8,29.55,North,0,0.0,0.0,72,0.00,,,0.00,WUHU216HW,2013-05-18 09:35:00,
2013-05-18 04:40:00,67.0,57.6,29.55,North,0,0.0,0.0,72,0.00,,,0.00,WUHU216HW,2013-05-18 09:40:00,
2013-05-18 04:45:00,67.0,57.6,29.55,North,0,0.0,0.0,72,0.00,,,0.00,WUHU216HW,2013-05-18 09:45:00,
2013-05-18 04:50:00,67.0,58.1,29.55,North,0,0.0,0.0,73,0.00,,,0.00,WUHU216HW,2013-05-18 09:50:00,
2013-05-18 04:55:00,66.8,57.9,29.55,North,0,0.0,0.0,73,0.00,,,0.00,WUHU216HW,2013-05-18 09:55:00,
2013-05-18 05:00:00,67.0,58.1,29.55,North,0,0.0,0.0,73,0.00,,,0.00,WUHU216HW,2013-05-18 10:00:00,
2013-05-18 05:05:00,66.6,57.7,29.55,North,0,0.0,0.0,73,0.00,,,0.00,WUHU216HW,2013-05-18 10:05:00,
2013-05-18 05:10:00,66.8,57.9,29.55,North,0,0.0,0.0,73,0.00,,,0.00,WUHU216HW,2013-05-18 10:10:00,
2013-05-18 05:15:00,67.0,58.1,29.55,North,0,0.0,0.0,73,0.00,,,0.00,WUHU216HW,2013-05-18 10:15:00,
2013-05-18 05:20:00,67.0,57.6,29.55,North,0,0.0,0.0,72,0.00,,,0.00,WUHU216HW,2013-05-18 10:20:00,
2013-05-18 05:25:00,67.0,57.6,29.55,North,0,0.0,0.0,72,0.00,,,0.00,WUHU216HW,2013-05-18 10:25:00,
2013-05-18 05:30:00,67.0,57.6,29.55,North,0,0.0,0.0,72,0.00,,,0.00,WUHU216HW,2013-05-18 10:30:00,
2013-05-18 05:35:00,67.3,58.0,29.55,North,0,0.0,0.0,72,0.00,,,0.00,WUHU216HW,2013-05-18 10:35:00,
2013-05-18 05:40:00,67.9,58.1,29.55,North,0,0.0,0.0,71,0.00,,,0.00,WUHU216HW,2013-05-18 10:40:00,
2013-05-18 05:45:00,68.0,58.0,29.56,North,0,0.0,0.0,70,0.00,,,0.00,WUHU216HW,2013-05-18 10:45:00,
2013-05-18 05:50:00,68.2,58.2,29.55,North,0,0.0,0.0,70,0.00,,,0.00,WUHU216HW,2013-05-18 10:50:00,
2013-05-18 05:55:00,68.6,58.4,29.56,North,0,0.0,0.0,70,0.00,,,0.00,WUHU216HW,2013-05-18 10:55:00,
2013-05-18 06:00:00,68.8,58.1,29.56,North,0,0.0,0.0,69,0.00,,,0.00,WUHU216HW,2013-05-18 11:00:00,
2013-05-18 06:05:00,68.6,58.1,29.56,North,0,0.0,0.0,69,0.00,,,0.00,WUHU216HW,2013-05-18 11:05:00,
2013-05-18 06:10:00,68.6,58.1,29.56,North,0,0.0,0.0,69,0.00,,,0.00,WUHU216HW,2013-05-18 11:10:00,
2013-05-18 06:15:00,68.4,57.9,29.56,North,0,0.0,0.0,69,0.00,,,0.00,WUHU216HW,2013-05-18 11:15:00,
2013-05-18 06:20:00,68.4,57.9,29.56,North,0,0.0,0.0,69,0.00,,,0.00,WUHU216HW,2013-05-18 11:20:00,
2013-05-18 06:25:00,68.4,57.9,29.56,North,0,0.0,0.0,69,0.00,,,0.00,WUHU216HW,2013-05-18 11:25:00,
2013-05-18 06:30:00,68.4,57.9,29.56,North,0,0.0,0.0,69,0.00,,,0.00,WUHU216HW,2013-05-18 11:30:00,
2013-05-18 06:35:00,68.2,57.7,29.56,North,0,0.0,0.0,69,0.00,,,0.00,WUHU216HW,2013-05-18 11:35:00,
2013-05-18 06:40:00,67.7,57.6,29.56,North,0,0.0,0.0,70,0.00,,,0.00,WUHU216HW,2013-05-18 11:40:00,
2013-05-18 06:45:00,67.3,57.2,29.56,North,0,0.0,0.0,70,0.00,,,0.00,WUHU216HW,2013-05-18 11:45:00,
2013-05-18 06:50:00,66.8,57.1,29.56,North,0,0.0,0.0,71,0.00,,,0.00,WUHU216HW,2013-05-18 11:50:00,
2013-05-18 06:55:00,66.6,57.7,29.56,North,0,0.0,0.0,73,0.00,,,0.00,WUHU216HW,2013-05-18 11:55:00,
2013-05-18 07:00:00,66.6,57.7,29.55,North,0,0.0,0.0,73,0.00,,,0.00,WUHU216HW,2013-05-18 12:00:00,
2013-05-18 07:05:00,66.8,57.9,29.56,North,0,0.0,0.0,73,0.00,,,0.00,WUHU216HW,2013-05-18 12:05:00,
2013-05-18 07:10:00,66.8,57.9,29.56,North,0,0.0,0.0,73,0.00,,,0.00,WUHU216HW,2013-05-18 12:10:00,
2013-05-18 07:15:00,66.8,58.2,29.56,North,0,0.0,0.0,74,0.00,,,0.00,WUHU216HW,2013-05-18 12:15:00,
2013-05-18 07:20:00,67.1,58.2,29.55,North,0,0.0,0.0,73,0.00,,,0.00,WUHU216HW,2013-05-18 12:20:00,
2013-05-18 07:25:00,67.7,58.3,29.56,North,0,0.0,0.0,72,0.00,,,0.00,WUHU216HW,2013-05-18 12:25:00,
2013-05-18 07:30:00,68.0,58.7,29.56,North,0,0.0,0.0,72,0.00,,,0.00,WUHU216HW,2013-05-18 12:30:00,
2013-05-18 07:35:00,68.4,58.7,29.55,North,0,0.0,0.0,71,0.00,,,0.00,WUHU216HW,2013-05-18 12:35:00,
2013-05-18 07:40:00,68.6,58.9,29.55,North,0,0.0,0.0,71,0.00,,,0.00,WUHU216HW,2013-05-18 12:40:00,
2013-05-18 07:45:00,68.8,59.0,29.55,North,0,0.0,0.0,71,0.00,,,0.00,WUHU216HW,2013-05-18 12:45:00,
2013-05-18 07:50:00,68.8,59.0,29.55,North,0,0.0,0.0,71,0.00,,,0.00,WUHU216HW,2013-05-18 12:50:00,
2013-05-18 07:55:00,68.8,59.0,29.55,North,0,0.0,0.0,71,0.00,,,0.00,WUHU216HW,2013-05-18 12:55:00,
2013-05-18 08:00:00,68.6,59.2,29.55,North,0,0.0,0.0,72,0.00,,,0.00,WUHU216HW,2013-05-18 13:00:00,
2013-05-18 08:05:00,68.6,59.2,29.55,North,0,0.0,0.0,72,0.00,,,0.00,WUHU216HW,2013-05-18 13:05:00,
2013-05-18 08:10:00,68.9,59.5,29.55,North,0,0.0,0.0,72,0.00,,,0.00,WUHU216HW,2013-05-18 13:10:00,
2013-05-18 08:15:00,69.5,59.7,29.55,North,0,0.0,0.0,71,0.00,,,0.00,WUHU216HW,2013-05-18 13:15:00,
2013-05-18 08:20:00,69.7,60.2,29.55,North,0,0.0,0.0,72,0.00,,,0.00,WUHU216HW,2013-05-18 13:20:00,
2013-05-18 08:25:00,70.2,60.3,29.55,North,0,0.0,0.0,71,0.00,,,0.00,WUHU216HW,2013-05-18 13:25:00,
2013-05-18 08:30:00,70.9,61.0,29.55,North,0,0.0,0.0,71,0.00,,,0.00,WUHU216HW,2013-05-18 13:30:00,
2013-05-18 08:35:00,71.3,61.0,29.55,North,0,0.0,0.0,70,0.00,,,0.00,WUHU216HW,2013-05-18 13:35:00,
2013-05-18 08:40:00,71.8,61.6,29.55,North,0,0.0,0.0,70,0.00,,,0.00,WUHU216HW,2013-05-18 13:40:00,
2013-05-18 08:45:00,72.2,61.9,29.55,North,0,0.0,0.0,70,0.00,,,0.00,WUHU216HW,2013-05-18 13:45:00,
2013-05-18 08:50:00,72.7,62.0,29.55,North,0,0.0,0.0,69,0.00,,,0.00,WUHU216HW,2013-05-18 13:50:00,
2013-05-18 08:55:00,72.9,62.2,29.55,North,0,0.0,0.0,69,0.00,,,0.00,WUHU216HW,2013-05-18 13:55:00,
2013-05-18 09:00:00,73.3,62.1,29.55,North,0,0.0,0.0,68,0.00,,,0.00,WUHU216HW,2013-05-18 14:00:00,
2013-05-18 09:05:00,73.6,62.5,29.55,North,0,0.0,0.0,68,0.00,,,0.00,WUHU216HW,2013-05-18 14:05:00,
2013-05-18 09:10:00,73.6,62.0,29.55,North,0,0.0,0.0,67,0.00,,,0.00,WUHU216HW,2013-05-18 14:10:00,
2013-05-18 09:15:00,73.8,62.7,29.55,North,0,0.0,0.0,68,0.00,,,0.00,WUHU216HW,2013-05-18 14:15:00,
2013-05-18 09:20:00,74.5,63.3,29.55,North,0,0.0,0.0,68,0.00,,,0.00,WUHU216HW,2013-05-18 14:20:00,
2013-05-18 09:25:00,74.9,62.7,29.55,North,0,0.0,0.0,66,0.00,,,0.00,WUHU216HW,2013-05-18 14:25:00,
2013-05-18 09:30:00,74.9,62.7,29.55,North,0,0.0,0.0,66,0.00,,,0.00,WUHU216HW,2013-05-18 14:30:00,
2013-05-18 09:35:00,75.2,63.1,29.55,North,0,0.0,0.0,66,0.00,,,0.00,WUHU216HW,2013-05-18 14:35:00,
2013-05-18 09:40:00,76.0,63.7,29.55,North,0,0.0,0.0,66,0.00,,,0.00,WUHU216HW,2013-05-18 14:40:00,
2013-05-18 09:45:00,76.3,63.6,29.55,North,0,0.0,0.0,65,0.00,,,0.00,WUHU216HW,2013-05-18 14:45:00,
2013-05-18 09:50:00,77.0,64.4,29.55,North,0,0.0,0.0,65,0.00,,,0.00,WUHU216HW,2013-05-18 14:50:00,
2013-05-18 09:55:00,76.7,63.1,29.55,North,0,0.0,0.0,63,0.00,,,0.00,WUHU216HW,2013-05-18 14:55:00,
2013-05-18 10:00:00,76.9,64.2,29.55,North,0,0.0,0.0,65,0.00,,,0.00,WUHU216HW,2013-05-18 15:00:00,
2013-05-18 10:05:00,77.2,64.1,29.55,North,0,0.0,0.0,64,0.00,,,0.00,WUHU216HW,2013-05-18 15:05:00,
2013-05-18 10:10:00,77.2,63.6,29.55,North,0,0.0,0.0,63,0.00,,,0.00,WUHU216HW,2013-05-18 15:10:00,
2013-05-18 10:15:00,77.0,63.5,29.55,North,0,0.0,0.0,63,0.00,,,0.00,WUHU216HW,2013-05-18 15:15:00,
2013-05-18 10:20:00,76.9,63.3,29.55,North,0,0.0,0.0,63,0.00,,,0.00,WUHU216HW,2013-05-18 15:20:00,
2013-05-18 10:25:00,76.7,63.1,29.55,North,0,0.0,0.0,63,0.00,,,0.00,WUHU216HW,2013-05-18 15:25:00,
2013-05-18 10:30:00,76.7,63.1,29.55,North,0,0.0,0.0,63,0.00,,,0.00,WUHU216HW,2013-05-18 15:30:00,
2013-05-18 10:35:00,77.2,63.6,29.55,North,0,0.0,0.0,63,0.00,,,0.00,WUHU216HW,2013-05-18 15:35:00,
2013-05-18 10:40:00,77.2,63.2,29.55,North,0,0.0,0.0,62,0.00,,,0.00,WUHU216HW,2013-05-18 15:40:00,
2013-05-18 10:45:00,77.4,63.4,29.55,North,0,0.0,0.0,62,0.00,,,0.00,WUHU216HW,2013-05-18 15:45:00,
2013-05-18 10:50:00,77.6,63.6,29.55,North,0,0.0,0.0,62,0.00,,,0.00,WUHU216HW,2013-05-18 15:50:00,
2013-05-18 10:55:00,77.4,63.4,29.55,North,0,0.0,0.0,62,0.00,,,0.00,WUHU216HW,2013-05-18 15:55:00,
2013-05-18 11:00:00,77.6,63.6,29.56,North,0,0.0,0.0,62,0.00,,,0.00,WUHU216HW,2013-05-18 16:00:00,
2013-05-18 11:05:00,77.9,64.4,29.56,North,0,0.0,0.0,63,0.00,,,0.00,WUHU216HW,2013-05-18 16:05:00,
2013-05-18 11:10:00,78.3,64.3,29.56,North,0,0.0,0.0,62,0.00,,,0.00,WUHU216HW,2013-05-18 16:10:00,
2013-05-18 11:15:00,78.3,64.3,29.55,North,0,0.0,0.0,62,0.00,,,0.00,WUHU216HW,2013-05-18 16:15:00,
2013-05-18 11:20:00,78.8,64.8,29.55,North,0,0.0,0.0,62,0.00,,,0.00,WUHU216HW,2013-05-18 16:20:00,
2013-05-18 11:25:00,79.0,64.5,29.55,North,0,0.0,0.0,61,0.00,,,0.00,WUHU216HW,2013-05-18 16:25:00,
2013-05-18 11:30:00,79.4,64.4,29.55,North,0,0.0,0.0,60,0.00,,,0.00,WUHU216HW,2013-05-18 16:30:00,
2013-05-18 11:35:00,79.6,65.0,29.55,North,0,0.0,0.0,61,0.00,,,0.00,WUHU216HW,2013-05-18 16:35:00,
2013-05-18 11:40:00,80.3,65.2,29.54,North,0,0.0,0.0,60,0.00,,,0.00,WUHU216HW,2013-05-18 16:40:00,
2013-05-18 11:45:00,80.6,64.4,29.54,North,0,0.0,0.0,58,0.00,,,0.00,WUHU216HW,2013-05-18 16:45:00,
2013-05-18 11:50:00,80.8,65.2,29.53,North,0,0.0,0.0,59,0.00,,,0.00,WUHU216HW,2013-05-18 16:50:00,
2013-05-18 11:55:00,81.4,65.6,29.53,North,0,0.0,0.0,59,0.00,,,0.00,WUHU216HW,2013-05-18 16:55:00,
2013-05-18 12:00:00,81.4,64.6,29.52,North,0,0.0,0.0,57,0.00,,,0.00,WUHU216HW,2013-05-18 17:00:00,
2013-05-18 12:05:00,81.2,64.4,29.52,North,0,0.0,0.0,57,0.00,,,0.00,WUHU216HW,2013-05-18 17:05:00,
2013-05-18 12:10:00,81.0,64.3,29.52,North,0,0.0,0.0,57,0.00,,,0.00,WUHU216HW,2013-05-18 17:10:00,
2013-05-18 12:15:00,81.4,64.6,29.52,North,0,0.0,0.0,57,0.00,,,0.00,WUHU216HW,2013-05-18 17:15:00,
2013-05-18 12:20:00,81.4,64.1,29.51,North,0,0.0,0.0,56,0.00,,,0.00,WUHU216HW,2013-05-18 17:20:00,
2013-05-18 12:25:00,81.2,63.9,29.50,North,0,0.0,0.0,56,0.00,,,0.00,WUHU216HW,2013-05-18 17:25:00,
2013-05-18 12:30:00,81.4,64.6,29.50,North,0,0.0,0.0,57,0.00,,,0.00,WUHU216HW,2013-05-18 17:30:00,
2013-05-18 12:34:00,81.7,64.5,29.50,North,0,0.0,0.0,56,0.00,,,0.00,WUHU216HW,2013-05-18 17:34:00,
2013-05-18 12:39:00,81.9,64.1,29.50,North,0,0.0,0.0,55,0.00,,,0.00,WUHU216HW,2013-05-18 17:39:00,
2013-05-18 12:44:00,81.9,63.6,29.49,North,0,0.0,0.0,54,0.00,,,0.00,WUHU216HW,2013-05-18 17:44:00,
2013-05-18 12:49:00,82.3,64.4,29.49,North,0,0.0,0.0,55,0.00,,,0.00,WUHU216HW,2013-05-18 17:49:00,
2013-05-18 12:54:00,82.8,64.4,29.48,North,0,0.0,0.0,54,0.00,,,0.00,WUHU216HW,2013-05-18 17:54:00,
2013-05-18 12:59:00,83.0,64.0,29.48,North,0,0.0,0.0,53,0.00,,,0.00,WUHU216HW,2013-05-18 17:59:00,
2013-05-18 13:04:00,83.0,63.6,29.48,North,0,0.0,0.0,52,0.00,,,0.00,WUHU216HW,2013-05-18 18:04:00,
2013-05-18 13:09:00,83.5,64.1,29.48,North,0,0.0,0.0,52,0.00,,,0.00,WUHU216HW,2013-05-18 18:09:00,
2013-05-18 13:14:00,83.7,64.3,29.48,North,0,0.0,0.0,52,0.00,,,0.00,WUHU216HW,2013-05-18 18:14:00,
2013-05-18 13:19:00,83.9,63.4,29.48,North,0,0.0,0.0,50,0.00,,,0.00,WUHU216HW,2013-05-18 18:19:00,
2013-05-18 13:24:00,83.9,63.4,29.48,North,0,0.0,0.0,50,0.00,,,0.00,WUHU216HW,2013-05-18 18:24:00,
2013-05-18 13:29:00,83.9,62.7,29.48,North,0,0.0,0.0,49,0.00,,,0.00,WUHU216HW,2013-05-18 18:29:00,
2013-05-18 13:34:00,84.1,63.5,29.48,North,0,0.0,0.0,50,0.00,,,0.00,WUHU216HW,2013-05-18 18:34:00,
2013-05-18 13:39:00,84.4,63.9,29.48,North,0,0.0,0.0,50,0.00,,,0.00,WUHU216HW,2013-05-18 18:39:00,
2013-05-18 13:44:00,84.6,64.5,29.48,North,0,0.0,0.0,51,0.00,,,0.00,WUHU216HW,2013-05-18 18:44:00,
2013-05-18 13:49:00,85.0,64.9,29.48,North,0,0.0,0.0,51,0.00,,,0.00,WUHU216HW,2013-05-18 18:49:00,
2013-05-18 13:54:00,85.3,65.3,29.48,North,0,0.0,0.0,51,0.00,,,0.00,WUHU216HW,2013-05-18 18:54:00,
2013-05-18 13:59:00,85.3,64.7,29.47,North,0,0.0,0.0,50,0.00,,,0.00,WUHU216HW,2013-05-18 18:59:00,
2013-05-18 14:04:00,85.0,63.7,29.47,North,0,0.0,0.0,49,0.00,,,0.00,WUHU216HW,2013-05-18 19:04:00,
2013-05-18 14:09:00,84.8,63.5,29.47,North,0,0.0,0.0,49,0.00,,,0.00,WUHU216HW,2013-05-18 19:09:00,
2013-05-18 14:14:00,84.4,63.3,29.47,North,0,0.0,0.0,49,0.00,,,0.00,WUHU216HW,2013-05-18 19:14:00,
2013-05-18 14:19:00,84.4,63.3,29.47,North,0,0.0,0.0,49,0.00,,,0.00,WUHU216HW,2013-05-18 19:19:00,
2013-05-18 14:24:00,84.6,63.5,29.47,North,0,0.0,0.0,49,0.00,,,0.00,WUHU216HW,2013-05-18 19:24:00,
2013-05-18 14:29:00,84.6,63.5,29.47,North,0,0.0,0.0,49,0.00,,,0.00,WUHU216HW,2013-05-18 19:29:00,
2013-05-18 14:34:00,84.8,64.2,29.47,North,0,0.0,0.0,50,0.00,,,0.00,WUHU216HW,2013-05-18 19:34:00,
2013-05-18 14:39:00,84.8,62.3,29.46,North,0,0.0,0.0,47,0.00,,,0.00,WUHU216HW,2013-05-18 19:39:00,
2013-05-18 14:44:00,84.2,62.5,29.46,North,0,0.0,0.0,48,0.00,,,0.00,WUHU216HW,2013-05-18 19:44:00,
2013-05-18 14:49:00,84.2,63.1,29.46,North,0,0.0,0.0,49,0.00,,,0.00,WUHU216HW,2013-05-18 19:49:00,
2013-05-18 14:54:00,84.4,63.3,29.46,North,0,0.0,0.0,49,0.00,,,0.00,WUHU216HW,2013-05-18 19:54:00,
2013-05-18 14:59:00,84.6,64.1,29.46,North,0,0.0,0.0,50,0.00,,,0.00,WUHU216HW,2013-05-18 19:59:00,
2013-05-18 15:04:00,84.6,64.1,29.46,North,0,0.0,0.0,50,0.00,,,0.00,WUHU216HW,2013-05-18 20:04:00,
2013-05-18 15:09:00,84.6,64.1,29.46,North,0,0.0,0.0,50,0.00,,,0.00,WUHU216HW,2013-05-18 20:09:00,
2013-05-18 15:14:00,84.6,64.1,29.46,North,0,0.0,0.0,50,0.00,,,0.00,WUHU216HW,2013-05-18 20:14:00,
2013-05-18 15:19:00,84.6,64.1,29.46,North,0,0.0,0.0,50,0.00,,,0.00,WUHU216HW,2013-05-18 20:19:00,
2013-05-18 15:24:00,84.6,64.5,29.46,North,0,0.0,0.0,51,0.00,,,0.00,WUHU216HW,2013-05-18 20:24:00,
2013-05-18 15:29:00,84.6,64.5,29.45,North,0,0.0,0.0,51,0.00,,,0.00,WUHU216HW,2013-05-18 20:29:00,
2013-05-18 15:34:00,84.6,64.5,29.45,North,0,0.0,0.0,51,0.00,,,0.00,WUHU216HW,2013-05-18 20:34:00,
2013-05-18 15:39:00,84.6,64.5,29.45,North,0,0.0,0.0,51,0.00,,,0.00,WUHU216HW,2013-05-18 20:39:00,
2013-05-18 15:44:00,84.6,64.5,29.45,North,0,0.0,0.0,51,0.00,,,0.00,WUHU216HW,2013-05-18 20:44:00,
2013-05-18 15:49:00,84.6,64.5,29.45,North,0,0.0,0.0,51,0.00,,,0.00,WUHU216HW,2013-05-18 20:49:00,
2013-05-18 15:54:00,84.4,63.9,29.45,North,0,0.0,0.0,50,0.00,,,0.00,WUHU216HW,2013-05-18 20:54:00,
2013-05-18 15:59:00,84.2,64.3,29.45,North,0,0.0,0.0,51,0.00,,,0.00,WUHU216HW,2013-05-18 20:59:00,
2013-05-18 16:04:00,84.2,64.3,29.44,North,0,0.0,0.0,51,0.00,,,0.00,WUHU216HW,2013-05-18 21:04:00,
2013-05-18 16:09:00,84.4,64.5,29.44,North,0,0.0,0.0,51,0.00,,,0.00,WUHU216HW,2013-05-18 21:09:00,
2013-05-18 16:14:00,84.6,65.1,29.44,North,0,0.0,0.0,52,0.00,,,0.00,WUHU216HW,2013-05-18 21:14:00,
2013-05-18 16:19:00,84.8,65.3,29.44,North,0,0.0,0.0,52,0.00,,,0.00,WUHU216HW,2013-05-18 21:19:00,
2013-05-18 16:24:00,84.8,65.3,29.44,North,0,0.0,0.0,52,0.00,,,0.00,WUHU216HW,2013-05-18 21:24:00,
2013-05-18 16:29:00,85.0,65.4,29.44,North,0,0.0,0.0,52,0.00,,,0.00,WUHU216HW,2013-05-18 21:29:00,
2013-05-18 16:34:00,84.8,65.3,29.43,North,0,0.0,0.0,52,0.00,,,0.00,WUHU216HW,2013-05-18 21:34:00,
2013-05-18 16:39:00,85.0,65.4,29.43,North,0,0.0,0.0,52,0.00,,,0.00,WUHU216HW,2013-05-18 21:39:00,
2013-05-18 16:44:00,85.0,65.4,29.43,North,0,0.0,0.0,52,0.00,,,0.00,WUHU216HW,2013-05-18 21:44:00,
2013-05-18 16:49:00,85.0,65.4,29.43,North,0,0.0,0.0,52,0.00,,,0.00,WUHU216HW,2013-05-18 21:49:00,
2013-05-18 16:54:00,85.0,65.4,29.43,North,0,0.0,0.0,52,0.00,,,0.00,WUHU216HW,2013-05-18 21:54:00,
2013-05-18 16:59:00,85.0,65.4,29.43,North,0,0.0,0.0,52,0.00,,,0.00,WUHU216HW,2013-05-18 21:59:00,
2013-05-18 17:04:00,85.1,65.6,29.43,North,0,0.0,0.0,52,0.00,,,0.00,WUHU216HW,2013-05-18 22:04:00,
2013-05-18 17:09:00,85.3,65.7,29.43,North,0,0.0,0.0,52,0.00,,,0.00,WUHU216HW,2013-05-18 22:09:00,
2013-05-18 17:14:00,85.3,65.7,29.43,North,0,0.0,0.0,52,0.00,,,0.00,WUHU216HW,2013-05-18 22:14:00,
2013-05-18 17:19:00,85.5,65.9,29.43,North,0,0.0,0.0,52,0.00,,,0.00,WUHU216HW,2013-05-18 22:19:00,
2013-05-18 17:24:00,85.5,65.9,29.42,North,0,0.0,0.0,52,0.00,,,0.00,WUHU216HW,2013-05-18 22:24:00,
2013-05-18 17:29:00,85.3,65.7,29.42,North,0,0.0,0.0,52,0.00,,,0.00,WUHU216HW,2013-05-18 22:29:00,
2013-05-18 17:34:00,85.1,65.6,29.42,North,0,0.0,0.0,52,0.00,,,0.00,WUHU216HW,2013-05-18 22:34:00,
2013-05-18 17:39:00,85.0,65.4,29.42,North,0,0.0,0.0,52,0.00,,,0.00,WUHU216HW,2013-05-18 22:39:00,
2013-05-18 17:44:00,85.0,65.4,29.41,North,0,0.0,0.0,52,0.00,,,0.00,WUHU216HW,2013-05-18 22:44:00,
2013-05-18 17:49:00,84.8,65.8,29.40,North,0,0.0,0.0,53,0.00,,,0.00,WUHU216HW,2013-05-18 22:49:00,
2013-05-18 17:54:00,85.0,66.0,29.41,North,0,0.0,0.0,53,0.00,,,0.00,WUHU216HW,2013-05-18 22:54:00,
2013-05-18 17:59:00,84.6,65.6,29.40,North,0,0.0,0.0,53,0.00,,,0.00,WUHU216HW,2013-05-18 22:59:00,
2013-05-18 18:04:00,84.2,65.3,29.40,North,0,0.0,0.0,53,0.00,,,0.00,WUHU216HW,2013-05-18 23:04:00,
2013-05-18 18:09:00,83.9,65.4,29.40,North,0,0.0,0.0,54,0.00,,,0.00,WUHU216HW,2013-05-18 23:09:00,
2013-05-18 18:14:00,83.9,65.4,29.40,North,0,0.0,0.0,54,0.00,,,0.00,WUHU216HW,2013-05-18 23:14:00,
2013-05-18 18:19:00,83.9,65.4,29.40,North,0,0.0,0.0,54,0.00,,,0.00,WUHU216HW,2013-05-18 23:19:00,
2013-05-18 18:24:00,84.1,66.2,29.40,North,0,0.0,0.0,55,0.00,,,0.00,WUHU216HW,2013-05-18 23:24:00,
2013-05-18 18:29:00,84.4,66.5,29.40,North,0,0.0,0.0,55,0.00,,,0.00,WUHU216HW,2013-05-18 23:29:00,
2013-05-18 18:34:00,84.6,66.2,29.40,North,0,0.0,0.0,54,0.00,,,0.00,WUHU216HW,2013-05-18 23:34:00,
2013-05-18 18:39:00,84.6,66.2,29.39,North,0,0.0,0.0,54,0.00,,,0.00,WUHU216HW,2013-05-18 23:39:00,
2013-05-18 18:44:00,84.6,65.6,29.38,North,0,0.0,0.0,53,0.00,,,0.00,WUHU216HW,2013-05-18 23:44:00,
2013-05-18 18:49:00,84.4,66.0,29.38,North,0,0.0,0.0,54,0.00,,,0.00,WUHU216HW,2013-05-18 23:49:00,
2013-05-18 18:54:00,84.4,66.0,29.39,North,0,0.0,0.0,54,0.00,,,0.00,WUHU216HW,2013-05-18 23:54:00,
2013-05-18 18:59:00,84.2,65.8,29.38,North,0,0.0,0.0,54,0.00,,,0.00,WUHU216HW,2013-05-18 23:59:00,
2013-05-18 19:04:00,84.2,65.8,29.38,North,0,0.0,0.0,54,0.00,,,0.00,WUHU216HW,2013-05-19 00:04:00,
2013-05-18 19:09:00,83.9,64.9,29.38,North,0,0.0,0.0,53,0.00,,,0.00,WUHU216HW,2013-05-19 00:09:00,
2013-05-18 19:14:00,83.7,64.7,29.39,North,0,0.0,0.0,53,0.00,,,0.00,WUHU216HW,2013-05-19 00:14:00,
2013-05-18 19:19:00,83.5,65.1,29.39,North,0,0.0,0.0,54,0.00,,,0.00,WUHU216HW,2013-05-19 00:19:00,
2013-05-18 19:24:00,83.5,65.1,29.39,North,0,0.0,0.0,54,0.00,,,0.00,WUHU216HW,2013-05-19 00:24:00,
2013-05-18 19:29:00,83.3,64.4,29.39,North,0,0.0,0.0,53,0.00,,,0.00,WUHU216HW,2013-05-19 00:29:00,
2013-05-18 19:34:00,83.2,64.7,29.39,North,0,0.0,0.0,54,0.00,,,0.00,WUHU216HW,2013-05-19 00:34:00,
2013-05-18 19:38:00,83.0,64.5,29.39,North,0,0.0,0.0,54,0.00,,,0.00,WUHU216HW,2013-05-19 00:38:00,
2013-05-18 19:43:00,82.6,64.7,29.38,North,0,0.0,0.0,55,0.00,,,0.00,WUHU216HW,2013-05-19 00:43:00,
2013-05-18 19:48:00,82.4,64.5,29.38,North,0,0.0,0.0,55,0.00,,,0.00,WUHU216HW,2013-05-19 00:48:00,
2013-05-18 19:53:00,82.1,64.2,29.39,North,0,0.0,0.0,55,0.00,,,0.00,WUHU216HW,2013-05-19 00:53:00,
2013-05-18 19:58:00,82.1,64.2,29.39,North,0,0.0,0.0,55,0.00,,,0.00,WUHU216HW,2013-05-19 00:58:00,
2013-05-18 20:03:00,81.9,64.5,29.38,North,0,0.0,0.0,56,0.00,,,0.00,WUHU216HW,2013-05-19 01:03:00,
2013-05-18 20:08:00,81.7,64.5,29.38,North,0,0.0,0.0,56,0.00,,,0.00,WUHU216HW,2013-05-19 01:08:00,
2013-05-18 20:13:00,81.7,64.5,29.39,North,0,0.0,0.0,56,0.00,,,0.00,WUHU216HW,2013-05-19 01:13:00,
2013-05-18 20:18:00,81.5,64.3,29.38,North,0,0.0,0.0,56,0.00,,,0.00,WUHU216HW,2013-05-19 01:18:00,
2013-05-18 20:23:00,81.4,64.6,29.38,North,0,0.0,0.0,57,0.00,,,0.00,WUHU216HW,2013-05-19 01:23:00,
2013-05-18 20:28:00,81.4,64.6,29.38,North,0,0.0,0.0,57,0.00,,,0.00,WUHU216HW,2013-05-19 01:28:00,
2013-05-18 20:33:00,81.4,64.6,29.38,North,0,0.0,0.0,57,0.00,,,0.00,WUHU216HW,2013-05-19 01:33:00,
2013-05-18 20:38:00,81.4,64.6,29.38,North,0,0.0,0.0,57,0.00,,,0.00,WUHU216HW,2013-05-19 01:38:00,
2013-05-18 20:43:00,81.0,64.8,29.37,North,0,0.0,0.0,58,0.00,,,0.00,WUHU216HW,2013-05-19 01:43:00,
2013-05-18 20:48:00,81.0,64.8,29.37,North,0,0.0,0.0,58,0.00,,,0.00,WUHU216HW,2013-05-19 01:48:00,
2013-05-18 20:53:00,80.8,64.6,29.37,North,0,0.0,0.0,58,0.00,,,0.00,WUHU216HW,2013-05-19 01:53:00,
2013-05-18 20:58:00,80.8,64.6,29.37,North,0,0.0,0.0,58,0.00,,,0.00,WUHU216HW,2013-05-19 01:58:00,
2013-05-18 21:03:00,80.6,65.0,29.36,North,0,0.0,0.0,59,0.00,,,0.00,WUHU216HW,2013-05-19 02:03:00,
2013-05-18 21:08:00,80.5,64.8,29.37,North,0,0.0,0.0,59,0.00,,,0.00,WUHU216HW,2013-05-19 02:08:00,
2013-05-18 21:13:00,80.5,64.8,29.37,North,0,0.0,0.0,59,0.00,,,0.00,WUHU216HW,2013-05-19 02:13:00,
2013-05-18 21:18:00,80.3,64.7,29.37,North,0,0.0,0.0,59,0.00,,,0.00,WUHU216HW,2013-05-19 02:18:00,
2013-05-18 21:23:00,80.3,64.7,29.36,North,0,0.0,0.0,59,0.00,,,0.00,WUHU216HW,2013-05-19 02:23:00,
2013-05-18 21:28:00,80.3,64.7,29.37,North,0,0.0,0.0,59,0.00,,,0.00,WUHU216HW,2013-05-19 02:28:00,
2013-05-18 21:33:00,80.3,64.7,29.38,North,0,0.0,0.0,59,0.00,,,0.00,WUHU216HW,2013-05-19 02:33:00,
2013-05-18 21:38:00,80.1,64.5,29.38,North,0,0.0,0.0,59,0.00,,,0.00,WUHU216HW,2013-05-19 02:38:00,
2013-05-18 21:43:00,80.1,64.5,29.38,North,0,0.0,0.0,59,0.00,,,0.00,WUHU216HW,2013-05-19 02:43:00,
2013-05-18 21:48:00,80.1,64.5,29.38,North,0,0.0,0.0,59,0.00,,,0.00,WUHU216HW,2013-05-19 02:48:00,
2013-05-18 21:53:00,80.1,64.5,29.38,North,0,0.0,0.0,59,0.00,,,0.00,WUHU216HW,2013-05-19 02:53:00,
2013-05-18 21:58:00,79.9,64.4,29.38,North,0,0.0,0.0,59,0.00,,,0.00,WUHU216HW,2013-05-19 02:58:00,
2013-05-18 22:03:00,79.7,64.2,29.38,North,0,0.0,0.0,59,0.00,,,0.00,WUHU216HW,2013-05-19 03:03:00,
2013-05-18 22:08:00,79.6,64.0,29.39,North,0,0.0,0.0,59,0.00,,,0.00,WUHU216HW,2013-05-19 03:08:00,
2013-05-18 22:13:00,79.6,64.5,29.39,North,0,0.0,0.0,60,0.00,,,0.00,WUHU216HW,2013-05-19 03:13:00,
2013-05-18 22:18:00,79.6,64.5,29.39,North,0,0.0,0.0,60,0.00,,,0.00,WUHU216HW,2013-05-19 03:18:00,
2013-05-18 22:23:00,79.6,64.5,29.39,North,0,0.0,0.0,60,0.00,,,0.00,WUHU216HW,2013-05-19 03:23:00,
2013-05-18 22:28:00,79.4,64.4,29.39,North,0,0.0,0.0,60,0.00,,,0.00,WUHU216HW,2013-05-19 03:28:00,
2013-05-18 22:33:00,79.0,64.5,29.39,North,0,0.0,0.0,61,0.00,,,0.00,WUHU216HW,2013-05-19 03:33:00,
2013-05-18 22:38:00,79.0,64.5,29.38,North,0,0.0,0.0,61,0.00,,,0.00,WUHU216HW,2013-05-19 03:38:00,
2013-05-18 22:43:00,78.8,64.4,29.38,North,0,0.0,0.0,61,0.00,,,0.00,WUHU216HW,2013-05-19 03:43:00,
2013-05-18 22:48:00,78.8,64.8,29.38,North,0,0.0,0.0,62,0.00,,,0.00,WUHU216HW,2013-05-19 03:48:00,
2013-05-18 22:53:00,78.8,64.8,29.39,North,0,0.0,0.0,62,0.00,,,0.00,WUHU216HW,2013-05-19 03:53:00,
2013-05-18 22:58:00,78.8,64.8,29.38,North,0,0.0,0.0,62,0.00,,,0.00,WUHU216HW,2013-05-19 03:58:00,
2013-05-18 23:01:00,78.8,64.8,29.38,North,0,0.0,0.0,62,0.00,,,0.00,WUHU216HW,2013-05-19 04:01:00,
2013-05-18 23:06:00,79.0,64.9,29.38,North,0,0.0,0.0,62,0.00,,,0.00,WUHU216HW,2013-05-19 04:06:00,
2013-05-18 23:11:00,79.2,65.1,29.38,North,0,0.0,0.0,62,0.00,,,0.00,WUHU216HW,2013-05-19 04:11:00,
2013-05-18 23:16:00,78.8,64.8,29.38,North,0,0.0,0.0,62,0.00,,,0.00,WUHU216HW,2013-05-19 04:16:00,
2013-05-18 23:21:00,78.7,64.6,29.38,North,0,0.0,0.0,62,0.00,,,0.00,WUHU216HW,2013-05-19 04:21:00,
2013-05-18 23:26:00,78.7,64.6,29.38,North,0,0.0,0.0,62,0.00,,,0.00,WUHU216HW,2013-05-19 04:26:00,
2013-05-18 23:31:00,78.5,64.9,29.39,North,0,0.0,0.0,63,0.00,,,0.00,WUHU216HW,2013-05-19 04:31:00,
2013-05-18 23:36:00,78.3,64.7,29.39,North,0,0.0,0.0,63,0.00,,,0.00,WUHU216HW,2013-05-19 04:36:00,
2013-05-18 23:41:00,78.1,65.0,29.38,North,0,0.0,0.0,64,0.00,,,0.00,WUHU216HW,2013-05-19 04:41:00,
2013-05-18 23:46:00,78.1,65.0,29.39,North,0,0.0,0.0,64,0.00,,,0.00,WUHU216HW,2013-05-19 04:46:00,
2013-05-18 23:51:00,78.1,65.3,29.41,North,0,0.0,0.0,65,0.00,,,0.00,WUHU216HW,2013-05-19 04:51:00,
2013-05-18 23:56:00,77.6,63.1,29.41,North,0,0.0,0.0,61,0.00,,,0.00,WUHU216HW,2013-05-19 04:56:00,